Miscellaneous Local Product
Issued by NWS North Platte, NE

Home | Current Version | Previous Version | Text Only | Print | Product List | Glossary On
Versions: 1 2 3 4 5 6 7 8 9 10 11 12 13 14 15 16 17 18 19 20 21 22 23 24 25 26 27 28 29 30 31 32 33 34 35 36 37 38 39 40 41 42 43 44 45 46 47 48 49 50
000
AXUS43 KLBF 291510
MISLBF


WESTERN AND NORTH CENTRAL NEBRASKA HOURLY WEATHER ROUNDUP
NATIONAL WEATHER SERVICE NORTH PLATTE NE
1000 AM CDT FRI MAY 29 2015

***STATIONS NOT REPORTING VARIABLES SUCH AS SKY/WEATHER OR
PRESSURE ARE PROVIDED BY THE NEBRASKA DEPARTMENT OF
ROADS...RAWS...AND APRS NETWORKS...AND ARE NOT UNDER
NATIONAL WEATHER SERVICE QUALITY CONTROL***

...OBSERVATIONS IN AND NEAR THE EASTERN PANHANDLE OF NEBRASKA...

CITY           SKY/WX    TMP DP  RH WIND       PRES   REMARKS
PINE RIDGE     CLOUDY    53  49  86 N21G30    30.14R
CHADRON        CLOUDY    53  50  89 N22G30    30.15R
ALLIANCE       LGT RAIN  55  53  93 N13       30.12R FOG
SIDNEY         CLOUDY    56  51  84 N17       30.16R
WHITECLAY        N/A     51  49  93 S18         N/A
BIG SPRINGS      N/A     61  54  78 N6          N/A
$$

...OBSERVATIONS IN NORTH CENTRAL NEBRASKA...

CITY           SKY/WX    TMP DP  RH WIND       PRES   REMARKS
VALENTINE      CLOUDY    57  55  94 N17G28    30.05R
THEDFORD       CLOUDY    60  57  87 NW12G18   30.05S
AINSWORTH      CLOUDY    63  56  79 NW21      30.02R
O`NEILL        CLOUDY    65  61  86 NW14      29.95S
ORD            MOSUNNY   65  58  78 NW14      29.96R
BROKEN BOW     SUNNY     67  58  72 N16       29.99R
VALENTINE NWR    N/A     60  59  96 N12G18      N/A
SPRINGVIEW       N/A     62  57  84 W7G18       N/A
HALSEY           N/A     58  55  89 NW9G16      N/A
ROSE             N/A     66  61  82 W16         N/A
NEWPORT          N/A     62  59  91 NW14        N/A
SARGENT          N/A     63  58  83 CALM        N/A
COMSTOCK         N/A     72  61  69 NW13        N/A
EWING            N/A     65  62  89 NW5G12      N/A
$$

...OBSERVATIONS IN SOUTHWEST NEBRASKA AND FAR NORTHEAST COLORADO...

CITY           SKY/WX    TMP DP  RH WIND       PRES   REMARKS
WRAY           FAIR      63  53  70 NW13      30.11S
HOLYOKE        FAIR      63  54  72 N16       30.12R
IMPERIAL         N/A     63  54  72 NW15      30.08R
OGALLALA       MOSUNNY   62  55  76 N16       30.08R
NORTH PLATTE   PTSUNNY   64  55  72 NW12      30.04S
MCCOOK         MOSUNNY   66  56  70 N12       30.04R
LEXINGTON      SUNNY     67  58  73 N10       30.00S
PAXTON           N/A     62  56  81 NW8         N/A
GOTHENBURG       N/A     65  54  66 NW7         N/A
CALLAWAY         N/A     64  59  85 N12         N/A
$$

...NORTH PLATTE AREA...

CITY           SKY/WX    TMP DP  RH WIND       PRES   REMARKS
AIRPORT        PTSUNNY   64  55  72 NW12      30.04S
DOWNTOWN         N/A     64  55  73 N7G14       N/A
$$

...SOME WEATHER OBSERVATIONS FROM AROUND THE REGION...

CITY           SKY/WX    TMP DP  RH WIND       PRES   REMARKS
DENVER         PTSUNNY   58  44  60 VRB5      30.21R
LARAMIE        CLOUDY    48  41  76 N16       30.27R
CHEYENNE       CLOUDY    52  41  66 NW12G23   30.22R
SCOTTSBLUFF    CLOUDY    57  52  83 NW8       30.16R
RAPID CITY     LGT RAIN  47  46  97 N26G33    30.19R FOG
PIERRE         RAIN      52  51  97 N29G37    30.05R FOG
WINNER         CLOUDY    60  55  83 N21       30.00R
SIOUX FALLS    LGT RAIN  65  62  90 CALM      29.90R
OMAHA          CLOUDY    69  63  81 S6        29.93S
GRAND ISLAND   PTSUNNY   66  58  75 N10       29.96S
KANSAS CITY    LGT RAIN  66  63  90 SW14G26   29.98R
WICHITA        CLOUDY    70  65  84 SE10      29.96S
HAYS           PTSUNNY   66  54  63 NW9       30.00S
LIBERAL        SUNNY     64  55  72 CALM      30.06R
GOODLAND       MOSUNNY   62  52  69 N18G28    30.09R
$$



USA.gov is the U.S. government's official web portal to all federal, state and local government web resources and services.